Yakima, WA

6:19 PM PDT on August 20, 2017 (GMT -0700)
Yakima Air Term-McAllister

Weather History for KYKM - August, 2012

Change the Weather History Date:

Saturday, August 4, 2012

  Actual Average Record
Temperature  
Mean Temperature 74 °F 72 °F  
Max Temperature 95 °F 89 °F 108 °F (1961)
Min Temperature 53 °F 54 °F 41 °F (1954)
Degree Days  
Heating Degree Days 0 0  
Month to date heating degree days 0 0  
Since 1 June heating degree days 120 119  
Since 1 July heating degree days 8 21  
Cooling Degree Days 9 7  
Month to date cooling degree days 34 28  
Year to date cooling degree days 413 308  
Since 1 June cooling degree days 389 288  
Growing Degree Days 24 (Base 50)    
Moisture  
Dew Point 45 °F    
Average Humidity 44    
Maximum Humidity 71    
Minimum Humidity 16    
Precipitation  
Precipitation 0.00 in 0.00 in 0.53 in (1977)
Month to date precipitation 0.00 0.02  
Year to date precipitation 5.48 4.53  
Snow  
Snow 0.00 in 0.00 in 0.00 in (2002)
Month to date snowfall 0.0 0.0  
Year to date snowfall 21.5 8.6  
Since 1 July snowfall 0.0 0.0  
Snow Depth 0.00 in    
Sea Level Pressure  
Sea Level Pressure 29.96 in    
Wind  
Wind Speed 5 mph (WSW)    
Max Wind Speed 12 mph    
Max Gust Speed 22 mph    
Visibility 10 miles    
Events      
T = Trace of Precipitation, MM = Missing Value Source: NWS Daily Summary

Daily Weather History Graph

Daily Weather History Graph

Search for Another Location

Airport or City:

Trip Planner

Search our weather history database for the weather conditions in past years. The results will help you decide how hot, cold, wet, or windy it might be!

Date:

Astronomy

Aug. 04, 2012 Rise Set
Actual Time 5:47 AM PDT 8:28 PM PDT
Civil Twilight 5:12 AM PDT 9:02 PM PDT
Nautical Twilight 4:28 AM PDT 9:46 PM PDT
Astronomical Twilight 3:37 AM PDT 10:36 PM PDT
Moon 9:22 PM PDT (8/4) 8:54 AM PDT (8/4)
Length of Visible Light 15h 49m
Length of Day
14h 41m
Waning Gibbous, 92% of the Moon is Illuminated
Aug 4
Waning Gibbous
Aug 9
Last Quarter
Aug 17
New
Aug 24
First Quarter
Aug 31
Full

Hourly Weather History & Observations

Time (PDT) Temp. Dew Point Humidity Pressure Visibility Wind Dir Wind Speed Gust Speed Precip Events Conditions
12:53 AM 60.1 °F 48.0 °F 64% 29.99 in 10.0 mi WNW 8.1 mph - N/A   Clear
1:53 AM 57.9 °F 45.0 °F 62% 30.00 in 10.0 mi West 6.9 mph - N/A   Clear
2:53 AM 59.0 °F 45.0 °F 60% 30.00 in 10.0 mi WSW 6.9 mph - N/A   Clear
3:53 AM 57.9 °F 45.0 °F 62% 30.00 in 10.0 mi West 4.6 mph - N/A   Clear
4:53 AM 54.0 °F 45.0 °F 72% 30.00 in 10.0 mi West 8.1 mph - N/A   Clear
5:53 AM 55.0 °F 45.0 °F 69% 30.00 in 10.0 mi West 9.2 mph - N/A   Clear
6:53 AM 59.0 °F 46.0 °F 62% 30.01 in 10.0 mi West 9.2 mph - N/A   Clear
7:53 AM 69.1 °F 46.0 °F 44% 30.01 in 10.0 mi West 6.9 mph - N/A   Clear
8:53 AM 73.9 °F 46.0 °F 37% 30.01 in 10.0 mi West 5.8 mph - N/A   Clear
9:53 AM 80.1 °F 46.9 °F 31% 30.01 in 10.0 mi Variable 3.5 mph - N/A   Clear
10:53 AM 84.9 °F 46.0 °F 26% 29.99 in 10.0 mi West 5.8 mph - N/A   Clear
11:53 AM 90.0 °F 39.0 °F 17% 29.97 in 10.0 mi Calm Calm - N/A   Clear
12:53 PM 93.0 °F 42.1 °F 17% 29.96 in 10.0 mi ESE 3.5 mph - N/A   Clear
1:53 PM 91.9 °F 39.9 °F 16% 29.96 in 10.0 mi Calm Calm - N/A   Clear
2:53 PM 93.0 °F 42.1 °F 17% 29.94 in 10.0 mi ESE 4.6 mph - N/A   Clear
3:53 PM 93.9 °F 41.0 °F 16% 29.92 in 10.0 mi East 3.5 mph - N/A   Clear
4:53 PM 93.9 °F 44.1 °F 18% 29.91 in 10.0 mi SW 4.6 mph - N/A   Clear
5:53 PM 93.0 °F 46.0 °F 20% 29.90 in 10.0 mi SW 3.5 mph - N/A   Clear
6:53 PM 91.9 °F 43.0 °F 18% 29.89 in 10.0 mi SSW 5.8 mph - N/A   Clear
7:53 PM 86.0 °F 44.1 °F 23% 29.88 in 10.0 mi SSW 3.5 mph - N/A   Clear
8:53 PM 75.0 °F 51.1 °F 43% 29.89 in 10.0 mi West 4.6 mph - N/A   Clear
9:53 PM 69.1 °F 52.0 °F 54% 29.90 in 10.0 mi West 4.6 mph - N/A   Clear
10:53 PM 71.1 °F 46.9 °F 42% 29.90 in 10.0 mi WNW 6.9 mph - N/A   Clear
11:53 PM 63.0 °F 50.0 °F 63% 29.91 in 10.0 mi WNW 8.1 mph - N/A   Clear